Miscellaneous Local Product
Issued by NWS Hastings, NE

Home | Current Version | Previous Version | Graphics & Text | Print | Product List | Glossary On
Versions: 1 2 3 4 5 6 7 8 9 10 11 12 13 14 15 16 17 18 19 20 21 22 23 24 25 26 27 28 29 30 31 32 33 34 35 36 37 38 39 40 41 42 43 44 45 46 47 48 49 50
000
AXUS43 KGID 230402
MISGRI

GID CWA HOURLY WEATHER ROUNDUP
NATIONAL WEATHER SERVICE HASTINGS NE
1100 PM CDT MON MAY 22 2017

NOTE: "FAIR" INDICATES FEW OR NO CLOUDS BELOW 12,000 FEET WITH NO
SIGNIFICANT WEATHER AND/OR OBSTRUCTIONS TO VISIBILITY.

...SOUTH CENTRAL NEBRASKA...

CITY           SKY/WX    TMP DP  RH WIND       PRES   REMARKS
GRAND ISLAND   CLOUDY    56  48  74 N16       29.99R
HASTINGS       LGT RAIN  55  47  74 NW17      30.00R
KEARNEY        CLOUDY    54  48  82 NW16G22   30.03R
ORD            CLOUDY    52  43  71 N13       30.01R
YORK           CLOUDY    55  45  67 N6        29.96R
AURORA         CLOUDY    57  46  66 N16       29.98R
LEXINGTON      LGT RAIN  51  48  90 NW8       30.07R
HOLDREGE       RAIN      51  48  90 NW15G23   30.05R
HEBRON         CLOUDY    55  54  96 CALM      29.94R

...NEBRASKA PANHANDLE...

CITY           SKY/WX    TMP DP  RH WIND       PRES   REMARKS
CHADRON        MOCLDY    43  40  89 W3        30.15R
ALLIANCE       CLEAR     34  33  96 W7        30.15R WCI  28
SCOTTSBLUFF    CLEAR     43  37  79 NW6       30.18R
SIDNEY         CLOUDY    40  37  89 NW10      30.18R WCI  33

...WESTERN AND NORTH CENTRAL NEBRASKA...

CITY           SKY/WX    TMP DP  RH WIND       PRES   REMARKS
VALENTINE      PTCLDY    46  40  79 W7        30.06R
AINSWORTH      CLOUDY    47  43  85 N7        30.06R
ONEILL         CLOUDY    48  41  76 W6        30.01S
BROKEN BOW     CLOUDY    52  42  69 N9        30.04R
IMPERIAL       PTCLDY    47  41  80 NW9       30.12R
NORTH PLATTE   CLOUDY    46  45  96 W8        30.08S
MCCOOK         CLOUDY    52  46  80 N22       30.08R

...EASTERN NEBRASKA...

CITY           SKY/WX    TMP DP  RH WIND       PRES   REMARKS
NORFOLK        PTCLDY    51  44  77 NW10      29.98R
SO SIOUX CITY  PTCLDY    52  47  83 NW9       29.94R
TEKAMAH        MOCLDY    56  47  71 NW17      29.92R
COLUMBUS         N/A    N/A N/A N/A MISG        N/A
ALBION         CLOUDY    54  46  74 N9        30.00R
OMAHA EPPLEY   MOCLDY    56  51  84 NW7       29.90R
OFFUTT AFB     CLOUDY    55  53  91 CALM      29.89R
MILLARD        CLOUDY    60  52  74 NW8G16    29.91R
LINCOLN        PTCLDY    56  53  90 CALM      29.94R
NEBRASKA CITY  CLOUDY    57  48  71 W9        29.90R
BEATRICE       CLOUDY    54  54  99 W5        29.92S
FALLS CITY     MOCLDY    58  54  86 SW3       29.89R

...NORTHERN KANSAS...

CITY           SKY/WX    TMP DP  RH WIND       PRES   REMARKS
GOODLAND       CLOUDY    49  46  90 NW13      30.11R
HILL CITY      CLOUDY    54  51  90 N9        30.02S
HAYS           CLOUDY    59  47  64 N23G36    29.98R
RUSSELL        CLOUDY    61  49  64 NE9       29.92R
CONCORDIA      CLOUDY    55  53  93 SW9       29.93S
SALINA         RAIN      60  55  83 E8        29.96R
TOPEKA         PTCLDY    58  58 100 S6        29.90F



USA.gov is the U.S. government's official web portal to all federal, state and local government web resources and services.